Location: Middelsbur
(53.6609°N, 7.5020°E)
Time: 22:13:47
(UTC+00:00)

Cosmos 1766 Rocket - Pass Details

Date: 06 July 2020
Orbit: 605 x 632 km, 82.5° (Epoch: 14 August)

Event Time Altitude Azimuth Distance (km) Brightness Sun altitude
Exits shadow 23:01:31 20° 189° (S) 1,432 4.8 -13.4°
Maximum altitude 23:04:32 89° 104° (ESE) 628 3.5 -13.5°
Drops below altitude 10° 23:08:59 10° 11° (NNE) 2,008 7.4 -13.6°
Sets 23:11:14 0° 12° (NNE) 2,924 8.6 -13.6°
